Weather History for KTEX - August, 2014

Change the Weather History Date:

Monday, August 4, 2014

  Actual Average Record
Temperature  
Mean Temperature 60 °F -  
Max Temperature 66 °F 70 °F 78 °F (2004)
Min Temperature 53 °F 48 °F 42 °F (1998)
Degree Days  
Heating Degree Days 6    
Growing Degree Days 10 (Base 50)    
Moisture  
Dew Point 49 °F    
Average Humidity 68    
Maximum Humidity 94    
Minimum Humidity 46    
Precipitation  
Precipitation 0.00 in - - ()
Sea Level Pressure  
Sea Level Pressure 30.45 in    
Wind  
Wind Speed 3 mph (SE)    
Max Wind Speed 9 mph    
Max Gust Speed 16 mph    
Visibility 10 miles    
Events Rain , Thunderstorm    
Averages and records for this station are not official NWS values.
T = Trace of Precipitation, MM = Missing Value Source: NWS Daily Summary

Daily Weather History Graph

Daily Weather History Graph

Search for Another Location

Airport or City:

Trip Planner

Search our weather history database for the weather conditions in past years. The results will help you decide how hot, cold, wet, or windy it might be!

Date:

Astronomy

Aug. 04, 2014 Rise Set
Actual Time 6:17 AM MDT 8:17 PM MDT
Civil Twilight 5:48 AM MDT 8:46 PM MDT
Nautical Twilight 5:13 AM MDT 9:21 PM MDT
Astronomical Twilight 4:35 AM MDT 9:59 PM MDT
Moon 2:33 PM MDT (8/4) 12:25 AM MDT (8/4)
Length of Visible Light 14h 57m
Length of Day
14h 00m
First Quarter, 58% of the Moon is Illuminated
Aug 4
First Quarter
Aug 10
Full
Aug 17
Last Quarter
Aug 25
New
Sep 2
First Quarter

Hourly Weather History & Observations

Time (MDT) Temp. Dew Point Humidity Pressure Visibility Wind Dir Wind Speed Gust Speed Precip Events Conditions
12:16 AM 55.4 °F 51.8 °F 88% 30.47 in 10.0 mi ESE 5.8 mph - N/A   Mostly Cloudy
12:56 AM 57.2 °F 48.2 °F 72% 30.46 in 10.0 mi Calm Calm - N/A   Overcast
1:16 AM 57.2 °F 48.2 °F 72% 30.46 in 10.0 mi Calm Calm - N/A   Overcast
1:36 AM 57.2 °F 48.2 °F 72% 30.46 in 10.0 mi SSE 3.5 mph - N/A   Overcast
1:56 AM 57.2 °F 50.0 °F 77% 30.47 in 10.0 mi ESE 3.5 mph - N/A   Overcast
2:16 AM 57.2 °F 48.2 °F 72% 30.47 in 10.0 mi SE 4.6 mph - N/A   Overcast
2:56 AM 53.6 °F 51.8 °F 94% 30.47 in 7.0 mi Calm Calm - N/A Rain Rain
3:16 AM 53.6 °F 51.8 °F 94% 30.47 in 10.0 mi East 4.6 mph - N/A Rain Light Rain
3:36 AM 53.6 °F 51.8 °F 94% 30.46 in 10.0 mi Calm Calm - N/A Rain Light Rain
3:56 AM 53.6 °F 50.0 °F 88% 30.45 in 10.0 mi ESE 9.2 mph - N/A   Scattered Clouds
4:56 AM 53.6 °F 48.2 °F 82% 30.45 in 10.0 mi East 5.8 mph - N/A   Overcast
5:36 AM 55.4 °F 48.2 °F 77% 30.45 in 10.0 mi East 5.8 mph - N/A   Overcast
5:56 AM 55.4 °F 48.2 °F 77% 30.45 in 10.0 mi Calm Calm - N/A   Overcast
6:18 AM 55.4 °F 48.2 °F 77% 30.45 in 10.0 mi Calm Calm - N/A   Overcast
6:36 AM 55.4 °F 46.4 °F 72% 30.46 in 10.0 mi Calm Calm - N/A   Overcast
7:16 AM 55.4 °F 46.4 °F 72% 30.46 in 10.0 mi Calm Calm - N/A   Overcast
7:36 AM 55.4 °F 48.2 °F 77% 30.46 in 10.0 mi Calm Calm - N/A   Overcast
7:56 AM 57.2 °F 48.2 °F 72% 30.46 in 10.0 mi Calm Calm - N/A   Overcast
8:36 AM 59.0 °F 48.2 °F 67% 30.47 in 10.0 mi SSE 3.5 mph - N/A Thunderstorm Overcast
8:56 AM 59.0 °F 48.2 °F 67% 30.47 in 10.0 mi Calm Calm - N/A   Overcast
9:16 AM 60.8 °F 48.2 °F 63% 30.47 in 10.0 mi Calm Calm - N/A   Overcast
9:56 AM 60.8 °F 50.0 °F 68% 30.48 in 10.0 mi WSW 5.8 mph - N/A   Overcast
10:16 AM 60.8 °F 50.0 °F 68% 30.48 in 10.0 mi Calm Calm - N/A   Overcast
10:36 AM 60.8 °F 48.2 °F 63% 30.48 in 10.0 mi WSW 3.5 mph - N/A Thunderstorm Overcast
11:16 AM 62.6 °F 50.0 °F 63% 30.48 in 10.0 mi WSW 6.9 mph - N/A Thunderstorm Overcast
11:37 AM 62.6 °F 51.8 °F 68% 30.48 in 10.0 mi WSW 9.2 mph - N/A   Overcast
12:16 PM 59.0 °F 48.2 °F 67% 30.49 in 10.0 mi West 9.2 mph 16.1 mph N/A Thunderstorm Overcast
12:56 PM 59.0 °F 48.2 °F 67% 30.48 in 10.0 mi Calm Calm - N/A   Overcast
1:56 PM 62.6 °F 51.8 °F 68% 30.46 in 10.0 mi East 8.1 mph - N/A   Mostly Cloudy
2:16 PM 62.6 °F 46.4 °F 55% 30.45 in 10.0 mi East 5.8 mph - N/A Thunderstorm Scattered Clouds
2:36 PM 62.6 °F 46.4 °F 55% 30.45 in 10.0 mi South 4.6 mph - N/A   Mostly Cloudy
2:56 PM 62.6 °F 44.6 °F 52% 30.45 in 10.0 mi Calm Calm - N/A Rain Light Rain
3:16 PM 62.6 °F 50.0 °F 63% 30.45 in 10.0 mi ESE 5.8 mph - N/A   Scattered Clouds
3:36 PM 62.6 °F 48.2 °F 59% 30.44 in 10.0 mi ESE 5.8 mph - N/A   Mostly Cloudy
3:56 PM 64.4 °F 46.4 °F 52% 30.43 in 10.0 mi Calm Calm - N/A   Scattered Clouds
4:16 PM 66.2 °F 48.2 °F 52% 30.42 in 10.0 mi Calm Calm - N/A Thunderstorm Clear
4:36 PM 66.2 °F 44.6 °F 46% 30.42 in 10.0 mi Calm Calm - N/A   Clear
4:56 PM 66.2 °F 44.6 °F 46% 30.42 in 10.0 mi Calm Calm - N/A Thunderstorm Scattered Clouds
5:16 PM 66.2 °F 46.4 °F 49% 30.42 in 10.0 mi Calm Calm - N/A Thunderstorm Scattered Clouds
5:56 PM 66.2 °F 48.2 °F 52% 30.42 in 10.0 mi Calm Calm - N/A   Mostly Cloudy
6:16 PM 66.2 °F 46.4 °F 49% 30.40 in 10.0 mi Calm Calm - N/A   Scattered Clouds
6:56 PM 64.4 °F 51.8 °F 64% 30.41 in 10.0 mi SE 3.5 mph - N/A   Clear
7:16 PM 62.6 °F 50.0 °F 63% 30.40 in 10.0 mi Calm Calm - N/A Thunderstorm Clear
7:56 PM 62.6 °F 51.8 °F 68% 30.41 in 10.0 mi SSE 3.5 mph - N/A Thunderstorm Scattered Clouds
8:37 PM 60.8 °F 50.0 °F 68% 30.41 in 10.0 mi Calm Calm - N/A   Clear
8:56 PM 59.0 °F 48.2 °F 67% 30.41 in 10.0 mi Calm Calm - N/A   Clear
9:16 PM 59.0 °F 48.2 °F 67% 30.40 in 10.0 mi Calm Calm - N/A   Clear
9:36 PM 59.0 °F 48.2 °F 67% 30.42 in 10.0 mi Calm Calm - N/A   Scattered Clouds
9:56 PM 57.2 °F 48.2 °F 72% 30.42 in 10.0 mi Calm Calm - N/A   Mostly Cloudy
10:16 PM 57.2 °F 48.2 °F 72% 30.43 in 10.0 mi Calm Calm - N/A   Scattered Clouds
10:36 PM 57.2 °F 48.2 °F 72% 30.43 in 10.0 mi Calm Calm - N/A   Scattered Clouds
10:56 PM 57.2 °F 48.2 °F 72% 30.43 in 10.0 mi Calm Calm - N/A   Scattered Clouds
11:36 PM 57.2 °F 48.2 °F 72% 30.43 in 10.0 mi East 4.6 mph - N/A   Scattered Clouds
11:56 PM 57.2 °F 48.2 °F 72% 30.43 in 10.0 mi Calm Calm - N/A Thunderstorm Scattered Clouds